Wind_Speed
20 21 22 24 25 26 27 28 29 30 31 32 33 34 35 37 38 39 39 40 41 41 42 42 43 43 43 43 43 43 44 44 44 44 44 45 45 46 46 46 47 47 47 48 48 48 48 49 49 50 50 51 51 52 52 52 53 53 53 54 54 54 54 54 54 54 54 53 53
20 21 22 24 25 26 27 28 28 29 30 31 32 34 35 36 38 38 39 40 40 41 42 42 42 43 43 43 43 43 44 44 44 44 44 44 45 45 45 46 46 47 47 47 47 47 48 48 49 49 50 50 51 52 52 52 53 53 54 54 54 54 54 54 54 54 54 53 53
21 22 23 24 25 26 27 28 29 29 30 31 32 33 35 36 37 38 38 39 40 41 41 42 42 43 43 43 43 43 43 43 43 43 43 43 44 44 44 45 45 46 46 46 47 47 47 48 48 49 50 50 51 52 52 52 52 53 54 55 54 54 54 55 55 54 53 53 53
22 23 23 24 25 26 28 29 29 30 30 30 32 33 34 35 36 37 37 38 39 40 40 41 42 42 43 43 43 43 43 42 42 42 42 42 42 43 43 44 44 45 46 46 46 46 47 47 48 48 49 50 51 51 52 52 52 53 54 54 54 54 54 55 54 53 53 53 52
23 24 24 25 25 26 27 28 29 30 30 30 31 32 33 33 34 35 35 36 37 37 38 39 41 42 42 42 42 42 42 41 41 41 41 41 41 41 41 42 43 44 44 45 45 46 46 46 47 48 49 50 50 51 51 51 52 53 54 53 53 54 54 54 54 53 53 53 52
24 23 23 23 24 25 26 27 27 28 29 29 30 31 31 31 31 32 32 33 34 35 36 38 39 40 41 41 42 42 41 41 40 40 40 40 40 40 40 41 42 42 43 43 44 45 45 45 46 48 49 49 50 50 51 51 52 53 54 54 54 54 54 54 54 53 53 53 53
23 22 21 21 21 22 23 24 24 25 26 27 28 28 28 28 28 29 30 31 32 33 34 35 37 38 39 40 41 41 41 40 40 40 40 40 40 40 40 41 41 41 42 42 43 43 44 45 46 47 48 49 50 51 51 51 52 53 54 54 54 54 54 54 54 53 53 53 53
21 19 18 18 18 18 19 20 20 21 22 23 24 25 25 26 27 28 29 30 30 31 32 33 35 36 37 39 40 40 40 40 40 40 40 40 40 40 40 40 41 41 42 42 42 43 43 44 45 46 48 49 50 51 51 51 52 52 53 54 54 54 54 54 54 53 53 53 53
18 16 16 15 15 15 16 16 17 18 19 20 21 23 24 25 26 27 28 29 29 30 31 32 33 34 36 37 38 39 39 39 40 40 40 40 40 40 41 41 41 41 42 42 42 43 43 43 44 46 47 48 49 50 51 51 52 52 52 53 53 54 54 54 54 54 54 53 53
16 15 14 14 14 15 15 16 17 18 19 20 22 23 24 25 26 27 28 28 29 29 30 31 32 33 34 35 36 38 39 39 40 40 40 40 40 40 40 41 41 41 42 42 42 43 43 43 44 45 46 47 48 49 50 51 51 52 52 52 53 53 54 54 54 54 54 54 54
15 15 15 15 15 16 16 17 18 19 20 22 23 24 25 26 27 28 29 29 30 30 31 31 31 32 33 34 35 36 37 39 40 40 40 40 40 40 40 41 41 41 41 42 42 43 44 44 44 44 45 45 46 47 49 50 51 52 52 52 52 52 53 54 54 54 54 54 54
15 15 15 16 16 17 18 19 20 21 22 23 24 25 27 28 29 30 30 31 32 32 32 32 32 32 33 34 34 35 36 37 39 40 40 40 40 40 41 41 41 41 41 42 42 44 45 45 45 45 44 44 45 46 47 48 50 51 52 52 52 52 53 53 54 54 54 54 54
16 16 16 17 18 19 19 20 21 22 23 24 25 27 28 29 30 31 32 33 34 34 34 34 33 33 34 34 34 35 35 36 37 38 39 40 40 40 41 41 42 42 42 43 44 45 46 47 47 46 45 44 44 44 45 47 48 50 51 52 52 52 53 53 53 53 54 54 54
17 17 18 18 19 20 21 22 23 24 25 26 27 28 29 30 31 33 34 35 36 36 36 36 35 35 35 35 35 35 35 35 36 37 38 38 39 40 41 42 42 43 43 44 45 46 47 47 48 47 47 46 45 44 44 45 46 48 50 51 52 52 52 52 52 53 53 54 54
18 18 19 20 20 21 22 23 24 25 26 27 28 29 30 31 32 34 35 36 37 38 38 38 37 37 36 36 35 35 35 35 36 36 37 38 38 39 40 41 42 43 44 45 46 46 47 47 48 48 48 47 46 45 44 44 45 47 48 49 51 51 52 51 51 52 53 53 54
19 19 20 21 22 23 24 25 26 27 28 29 30 31 32 33 34 35 36 37 38 39 39 39 39 39 38 37 37 36 36 36 36 36 37 38 38 39 39 40 41 42 43 45 46 46 47 47 48 48 48 47 47 46 45 45 45 46 47 48 49 50 51 51 51 52 52 53 53
20 20 21 22 23 24 25 26 27 28 29 30 31 32 33 34 35 36 37 39 40 41 41 41 41 40 40 39 38 37 36 36 36 37 37 37 38 38 39 40 40 41 42 44 45 46 47 47 47 47 47 47 47 46 46 46 46 47 47 48 48 49 50 51 51 51 52 52 53
20 21 22 23 24 25 26 27 28 30 31 32 33 34 34 36 37 38 39 40 41 42 42 42 42 41 40 40 39 38 37 37 37 37 37 37 37 37 38 39 39 40 41 43 44 45 46 46 47 47 47 47 47 47 46 46 47 47 48 48 48 49 50 51 51 51 52 52 52
21 21 22 23 25 26 27 29 30 31 32 33 34 35 36 37 39 40 41 42 43 44 44 44 43 42 40 40 39 38 37 37 37 37 37 36 36 37 37 38 39 40 41 42 43 44 44 45 46 46 46 47 47 47 46 47 47 48 48 48 48 49 49 50 51 52 52 52 52
21 22 23 25 26 27 29 30 31 32 34 35 36 37 38 39 40 42 43 44 45 45 45 45 43 42 40 39 38 38 37 37 37 37 36 36 36 36 37 37 38 39 40 41 42 43 44 45 46 46 46 46 46 46 46 46 47 48 48 48 49 49 49 50 51 52 52 52 52
22 23 24 26 27 29 30 31 33 34 35 36 37 39 40 41 42 43 45 46 46 47 46 45 43 41 40 39 38 37 36 36 36 36 36 36 36 36 36 37 38 39 40 41 42 43 44 45 45 46 46 46 46 46 46 46 47 48 48 48 49 49 49 50 51 51 52 52 53
23 24 26 27 29 30 31 33 34 35 37 38 39 40 42 43 44 45 46 47 48 47 46 44 42 41 39 38 37 36 36 35 35 35 36 36 36 36 36 37 38 39 39 40 41 43 44 45 45 46 46 46 46 46 46 46 47 47 48 48 48 49 49 50 50 51 52 52 53
25 26 27 29 30 31 33 34 36 37 39 40 41 42 43 45 46 47 47 48 48 48 46 44 41 40 38 37 37 36 35 35 35 35 35 36 36 36 36 37 38 39 39 40 41 42 43 44 45 45 46 46 46 46 46 46 47 47 48 48 48 49 49 50 50 51 51 52 52
27 28 29 30 31 33 34 36 37 39 40 42 43 44 45 46 47 48 49 49 49 47 45 43 40 39 37 37 36 36 36 36 35 35 35 35 36 36 36 37 37 38 39 39 40 41 42 43 44 45 45 45 45 46 46 46 46 47 48 48 49 49 49 49 50 50 51 52 52
29 30 31 32 33 35 36 37 39 41 42 44 45 46 47 48 49 50 50 50 49 47 44 42 40 38 37 36 36 36 36 36 36 36 35 35 35 35 36 36 37 37 38 38 39 40 41 42 43 44 44 44 45 45 45 46 46 47 48 48 48 49 49 49 50 50 50 51 52
32 32 33 34 35 36 37 39 41 42 44 46 47 48 49 49 50 51 51 50 49 46 43 41 39 38 37 36 36 36 36 36 36 36 35 35 35 35 36 36 37 37 37 37 37 38 40 41 42 43 43 44 44 44 45 45 46 46 47 47 48 48 49 50 50 50 50 50 51
34 35 36 37 37 38 39 41 42 44 46 47 48 49 50 51 51 52 51 50 48 45 43 40 39 38 37 37 37 37 37 36 36 36 36 36 36 36 36 36 37 37 37 36 36 37 38 39 40 41 42 42 43 43 44 44 44 44 45 46 47 48 49 50 50 50 50 50 51
36 37 38 39 40 41 41 43 44 46 47 48 49 50 51 52 52 52 51 50 47 45 42 40 39 38 37 37 37 37 37 37 37 37 37 37 37 37 36 36 37 36 36 36 36 36 37 37 38 38 39 40 41 42 42 42 42 43 43 44 45 46 47 49 49 50 50 50 50
39 40 40 41 42 43 44 44 46 47 48 49 50 51 51 52 53 52 51 49 46 44 42 40 39 38 38 38 38 38 38 37 37 37 37 38 38 37 37 37 37 36 36 36 36 36 36 36 36 36 36 37 38 40 41 42 42 42 42 43 43 44 45 46 47 48 49 49 50
43 43 43 44 45 45 46 46 47 48 48 49 50 51 52 52 52 52 51 49 46 43 41 40 39 38 38 38 38 38 38 38 38 38 38 39 39 38 38 37 37 37 36 36 36 36 36 36 36 35 35 35 36 38 40 42 42 42 42 43 43 43 44 44 45 46 47 48 49
46 46 46 46 47 47 47 47 48 48 49 49 50 51 51 52 52 52 50 48 45 43 40 39 39 38 38 38 38 38 39 39 39 39 39 39 39 39 39 38 38 37 36 36 36 35 35 35 35 35 34 33 33 35 38 41 42 43 43 44 44 43 43 43 44 44 45 46 47
48 48 48 48 48 48 48 48 48 48 49 49 50 50 51 52 52 51 49 47 44 42 40 39 38 38 38 38 38 39 39 39 39 39 39 40 40 40 39 39 38 38 37 36 36 35 35 34 34 34 34 33 33 34 36 39 41 43 44 44 44 44 44 44 44 44 44 44 45
49 48 48 47 47 47 47 48 48 48 48 49 49 50 50 51 52 51 49 46 43 41 39 38 38 38 38 38 38 39 39 39 40 40 40 40 40 40 40 40 39 38 37 36 36 35 35 34 33 33 33 32 32 33 35 37 40 42 43 44 45 45 45 45 45 44 44 44 44
46 45 45 45 46 46 47 47 47 48 48 48 49 49 50 51 51 50 48 45 42 39 38 37 37 37 37 38 38 39 39 40 40 40 40 40 40 41 41 41 40 39 38 37 36 36 35 34 33 32 32 31 32 33 35 36 38 40 42 44 45 45 46 46 46 46 45 44 44
42 42 43 44 45 46 46 47 47 47 47 48 48 49 50 51 50 49 47 43 41 39 37 36 36 36 37 37 38 38 39 40 40 40 40 40 41 41 41 41 40 39 38 37 37 36 35 34 33 32 31 30 31 32 34 35 37 39 41 43 44 45 46 46 47 46 46 46 45
40 41 42 43 44 45 46 46 46 46 47 47 48 49 50 51 50 48 45 42 40 39 38 37 36 36 36 37 38 38 39 40 40 40 40 40 41 41 42 42 41 40 38 37 36 36 35 34 32 31 30 30 30 31 33 35 37 38 40 42 43 44 45 46 46 47 47 47 47
41 42 43 43 44 45 45 45 46 46 46 47 49 50 50 50 49 46 43 41 40 39 38 37 37 37 37 37 38 38 39 39 40 41 41 41 41 41 42 42 42 40 39 37 36 35 34 33 32 31 30 30 30 31 32 34 36 38 39 41 42 43 44 45 46 46 47 47 48
43 43 43 43 44 44 45 45 45 46 47 48 49 50 50 49 47 45 42 40 40 39 39 39 38 38 37 37 38 38 39 39 40 41 41 41 41 41 42 42 42 40 39 37 36 35 34 33 32 30 29 30 31 31 32 34 36 38 39 40 41 42 43 44 45 46 47 48 48
43 43 42 43 43 44 45 45 46 46 47 48 49 49 49 47 45 43 41 39 39 39 40 40 39 39 38 38 38 39 39 39 39 40 41 41 41 41 41 41 41 40 39 37 36 35 34 33 32 30 29 29 30 31 32 34 36 37 39 39 40 41 42 42 43 45 46 47 48
43 42 42 43 44 44 45 46 46 47 47 48 48 48 47 45 43 41 40 39 39 39 40 40 40 39 38 38 38 39 40 40 39 40 40 40 40 40 40 41 41 40 39 37 36 35 34 33 32 30 29 29 29 30 32 33 35 37 38 39 39 40 41 41 42 44 45 46 47
42 42 43 43 43 44 45 45 46 47 47 47 47 47 45 43 41 40 39 39 39 39 40 40 40 39 39 38 38 39 40 40 40 39 39 39 39 39 39 40 40 40 39 37 36 35 34 33 32 30 29 28 29 30 31 32 34 36 37 38 39 39 40 41 42 43 44 45 47
Wind_Direction
312 310 309 307 305 304 303 304 305 305 305 304 303 302 301 299 298 298 298 297 296 296 296 296 295 294 294 293 292 291 291 290 289 288 287 286 285 284 283 282 281 280 278 278 277 275 273 271 270 268 267 267 267 266 266 265 264 262 261 260 259 258 257 257 256 256 255 255 254
315 313 310 307 305 304 304 305 307 307 307 307 307 306 304 302 300 299 299 299 298 297 297 296 295 294 294 293 293 292 291 290 290 289 288 287 286 285 284 283 281 280 279 278 276 275 273 271 269 268 267 267 266 266 265 265 263 262 261 260 259 258 257 256 256 257 256 255 255
318 316 312 309 306 305 304 305 307 308 309 309 307 306 304 303 301 301 300 300 299 298 297 297 296 296 295 294 293 292 292 291 290 290 289 288 287 286 284 283 282 281 280 278 277 275 273 271 269 268 267 267 267 266 266 265 264 262 260 260 259 258 257 256 256 256 256 255 254
318 316 312 310 307 306 305 305 305 307 308 309 305 304 304 302 302 301 301 301 300 299 299 299 298 297 296 294 293 292 292 292 291 290 289 288 287 286 285 284 283 281 280 279 277 276 274 272 270 268 267 267 267 267 266 265 264 262 261 261 260 258 257 256 256 256 255 254 253
317 315 312 310 308 306 305 304 303 304 305 306 305 304 303 303 303 303 303 303 302 302 302 301 299 297 296 294 293 293 292 292 291 291 290 289 289 288 286 285 284 282 281 280 278 276 274 272 269 268 267 267 267 267 267 266 264 262 262 261 259 258 257 256 256 255 254 254 253
317 316 313 310 307 305 304 303 302 302 302 303 302 301 303 305 306 306 306 306 306 305 303 301 299 298 296 295 294 293 292 292 292 291 290 290 289 288 287 285 284 283 282 280 279 277 275 272 269 268 267 267 267 267 266 265 263 262 261 260 259 257 256 255 255 255 254 253 253
316 316 314 311 308 305 303 303 302 302 302 302 302 304 307 310 310 310 309 309 308 306 304 302 300 298 297 295 294 293 293 292 292 291 291 290 290 288 287 286 285 284 282 281 279 277 275 272 269 268 267 266 265 265 264 263 261 260 260 259 259 258 256 255 255 255 254 253 253
316 316 315 313 311 308 307 307 307 307 307 307 308 311 314 316 314 312 311 310 309 307 306 303 301 299 297 296 294 294 293 292 291 291 290 290 290 289 288 287 285 284 282 281 279 277 275 273 270 268 267 266 265 264 263 262 261 260 259 259 259 258 257 256 256 255 254 254 254
317 318 319 320 320 320 320 319 319 319 319 319 321 322 322 320 317 314 312 311 311 309 307 304 302 300 298 296 295 294 293 292 291 291 290 290 289 289 288 287 285 284 283 281 279 277 275 272 270 269 269 267 265 264 263 262 261 260 260 259 259 258 257 257 256 255 255 254 254
321 324 328 330 332 334 334 333 333 333 333 332 332 332 330 327 324 321 319 316 315 312 310 308 306 303 300 297 295 294 292 291 290 290 289 289 288 288 287 287 286 284 283 281 279 277 274 272 270 270 270 269 267 266 264 263 261 260 260 260 259 258 258 257 256 255 255 254 254
325 328 332 335 337 338 338 338 338 338 338 338 337 337 336 334 331 329 326 323 320 317 316 313 310 306 302 300 297 295 293 291 290 289 288 288 287 287 286 286 285 285 284 282 280 277 274 271 270 270 271 270 269 267 265 264 262 261 260 260 259 258 257 257 256 255 254 254 254
325 327 330 332 333 334 334 335 335 335 335 335 336 336 336 335 335 333 331 328 326 324 321 318 313 309 306 303 301 298 295 292 290 289 288 287 286 286 285 284 284 284 283 282 279 277 274 272 271 270 270 270 269 267 266 264 262 261 260 260 259 258 257 257 256 255 255 255 254
322 324 326 327 328 329 329 330 330 330 331 331 331 331 331 332 332 333 332 331 329 327 324 321 317 312 309 306 304 301 298 295 293 291 289 287 286 285 284 283 282 282 281 280 279 277 275 274 272 271 270 269 268 267 266 265 263 262 261 260 259 258 257 257 256 256 255 255 254
318 320 321 322 323 324 325 326 326 327 327 327 327 327 328 328 329 330 330 330 329 328 326 323 319 315 312 309 306 303 301 298 295 292 290 288 286 284 283 282 281 281 280 280 278 277 276 275 274 273 272 271 269 268 267 266 265 264 262 261 260 259 259 258 257 256 255 254 254
314 316 317 319 320 322 323 324 324 325 326 326 326 326 326 327 328 328 328 328 328 327 325 323 321 317 314 310 307 304 301 298 296 293 291 289 287 285 283 282 281 281 280 280 279 278 277 277 276 275 274 273 272 271 269 267 266 265 264 263 261 260 260 259 258 257 255 255 254
311 313 315 317 319 320 322 323 324 325 326 326 326 326 327 327 327 327 328 328 327 327 325 324 322 319 315 312 308 304 301 298 295 293 291 290 288 287 285 283 282 281 281 280 280 279 279 278 277 276 276 275 274 273 271 268 266 266 265 265 264 262 261 260 259 258 257 256 255
310 312 315 317 319 321 322 323 324 325 326 326 326 326 327 327 327 328 328 328 328 327 326 324 322 319 316 313 309 305 301 298 295 293 291 290 289 288 287 285 284 283 282 281 280 280 279 279 278 277 276 276 275 274 272 269 267 266 266 266 265 264 262 261 260 259 258 257 256
310 313 315 318 320 322 323 324 325 325 325 326 326 326 326 327 327 328 328 328 328 328 326 325 323 320 317 314 310 306 302 298 295 293 292 291 290 290 288 287 286 285 283 282 281 280 280 279 279 278 277 276 275 274 272 270 267 266 266 266 266 265 264 262 261 260 259 258 257
310 313 317 319 322 323 324 325 325 325 325 325 325 325 325 326 327 327 328 328 328 328 327 325 323 320 317 314 310 307 303 300 297 295 293 292 291 290 289 288 288 286 285 284 282 281 281 280 279 278 276 275 275 274 272 270 268 266 266 266 266 265 264 263 261 261 260 259 258
310 314 317 320 322 324 325 325 325 325 325 325 325 325 325 325 326 327 327 328 328 328 326 325 322 320 317 313 310 307 304 301 299 296 294 293 291 290 289 289 288 287 286 285 284 282 281 280 279 277 276 275 274 273 272 270 268 267 266 266 265 265 264 263 262 261 260 260 259
310 313 317 320 322 324 325 325 325 325 325 324 324 324 324 324 325 326 327 327 327 327 326 324 321 319 316 312 309 306 304 302 300 298 296 294 292 291 290 289 288 287 287 285 284 283 281 280 278 277 275 274 273 272 271 270 269 267 266 266 265 265 264 263 262 261 260 260 259
308 312 315 318 321 323 324 324 324 324 324 324 323 323 323 324 324 325 326 326 326 326 325 323 320 317 314 311 309 307 305 303 301 299 297 296 294 293 291 290 288 287 286 285 284 283 282 280 279 277 275 274 273 272 271 270 268 267 267 266 265 264 264 263 262 261 260 260 259
306 310 313 316 319 320 322 323 323 323 323 322 322 322 323 323 324 324 325 326 325 325 323 321 319 316 313 311 309 307 305 304 302 301 299 298 297 295 293 291 289 287 286 285 284 283 282 280 279 277 276 274 273 272 271 270 268 267 266 266 265 264 263 262 262 261 260 260 259
305 308 311 314 316 318 319 320 321 321 321 321 321 322 322 323 323 324 324 325 324 323 322 320 317 315 312 310 309 307 306 304 303 302 301 300 299 297 295 293 291 289 288 287 286 284 283 281 279 278 276 275 273 272 271 269 268 267 266 265 264 264 263 262 261 260 260 259 259
304 307 310 312 314 316 317 318 319 320 320 320 321 321 322 323 323 324 324 324 323 322 321 318 316 314 312 310 309 307 306 305 304 303 303 302 300 299 297 295 293 291 290 289 287 286 284 282 280 279 277 275 274 272 271 269 267 266 265 264 264 263 262 262 261 260 260 259 259
304 306 309 311 313 314 315 316 317 318 319 319 320 321 322 323 323 323 323 323 322 321 319 317 315 313 311 310 308 307 306 306 305 305 304 303 302 300 298 296 294 293 292 291 290 288 286 283 281 279 277 276 274 272 270 268 267 266 265 264 263 262 261 261 260 260 259 259 259
304 306 309 310 311 312 313 314 316 317 318 319 320 321 322 322 323 323 323 322 321 319 318 315 314 312 311 309 308 307 306 306 306 306 305 304 303 301 299 297 296 295 294 294 293 291 288 284 280 277 276 275 274 273 271 269 268 267 265 264 263 262 261 260 260 259 259 259 258
304 306 308 310 311 311 312 313 315 316 318 319 320 321 321 322 322 322 322 321 319 318 316 314 313 311 310 308 307 307 307 307 307 307 306 305 304 302 301 299 298 297 297 297 295 293 290 286 281 276 273 271 272 272 272 271 269 268 266 264 263 261 260 260 259 259 258 258 257
304 306 308 310 310 311 312 313 315 316 318 319 319 320 321 321 321 321 320 319 318 316 314 313 312 310 309 308 307 307 307 307 307 306 306 305 304 303 302 301 300 299 299 298 296 294 291 287 283 277 271 267 266 267 269 270 269 267 266 264 262 261 260 259 258 258 257 256 256
303 305 307 309 309 310 311 313 314 316 317 318 319 319 319 319 319 319 319 318 316 315 313 312 311 309 308 307 307 307 306 306 306 306 305 304 304 303 303 302 302 301 301 299 297 294 291 288 284 279 273 266 261 260 262 265 266 266 265 264 263 262 261 260 259 257 256 255 254
302 304 306 307 308 309 311 312 314 316 317 318 318 318 318 318 318 318 317 316 315 313 312 311 310 308 308 307 307 306 306 306 306 305 305 304 304 304 304 303 302 302 301 300 297 294 290 287 283 279 274 268 261 257 256 259 262 263 264 264 263 263 262 262 260 259 257 256 254
302 303 304 306 307 308 310 312 314 316 317 317 317 316 316 316 316 316 315 315 313 312 311 310 309 308 308 307 307 306 305 305 305 304 304 304 304 304 304 303 302 302 301 300 297 294 290 287 283 279 275 269 263 258 255 254 257 259 262 263 264 264 263 263 262 261 260 258 256
303 304 304 305 307 309 311 313 315 316 316 316 315 314 313 313 314 314 314 313 312 311 310 309 308 308 308 308 307 306 305 305 304 304 304 304 303 303 303 302 302 301 301 300 298 295 292 288 284 280 275 269 264 260 256 253 254 255 258 260 262 263 263 263 263 262 261 260 259
306 306 306 307 308 310 312 314 315 315 315 314 312 311 311 311 312 312 312 312 311 310 309 308 308 308 308 308 307 306 305 304 304 303 303 303 303 302 301 301 301 301 302 301 299 296 293 289 285 281 277 271 266 261 256 253 252 253 255 257 260 261 262 263 263 263 262 262 261
309 309 309 310 311 313 314 315 315 314 313 311 309 309 309 310 310 311 311 311 310 309 308 308 309 309 309 308 308 307 305 304 304 303 303 302 301 300 300 299 300 301 301 300 298 296 293 290 286 282 277 272 266 261 257 254 252 251 253 255 257 259 261 262 262 262 262 262 261
313 313 314 314 314 315 315 314 313 312 310 308 307 307 308 309 310 310 310 310 309 309 308 309 309 310 309 309 309 308 306 305 304 303 302 301 300 299 298 299 300 300 301 300 298 296 293 290 286 282 278 272 267 262 258 255 252 251 252 253 255 257 259 260 261 262 262 262 261
317 317 316 316 315 314 314 312 310 308 306 305 305 306 307 309 310 310 310 310 309 309 308 309 310 310 310 310 309 308 307 305 304 302 301 300 299 298 298 298 298 299 299 299 297 296 293 290 286 281 275 270 265 261 258 255 253 252 251 252 253 255 257 259 260 261 262 262 261
318 317 316 315 313 312 311 309 307 305 304 304 305 306 308 309 309 309 309 309 309 308 308 309 309 310 310 310 309 308 307 305 303 302 301 300 299 298 298 297 297 298 298 298 297 295 293 290 286 280 274 268 264 261 258 256 254 252 252 252 252 254 255 257 258 260 261 262 262
317 316 314 312 310 309 308 306 304 303 303 304 305 307 308 309 309 309 309 308 308 308 308 309 309 309 310 310 309 308 307 305 304 303 301 301 300 299 298 296 296 297 297 297 296 295 293 290 287 282 275 269 264 261 258 256 254 253 252 252 252 253 253 254 256 258 260 261 261
315 313 311 309 308 306 305 304 303 303 303 305 306 307 308 309 308 308 308 308 307 307 308 308 308 309 309 310 309 308 307 306 305 304 303 302 301 300 298 296 295 296 296 296 295 294 292 290 287 283 278 272 266 262 258 256 255 254 253 252 252 252 252 253 254 256 258 259 260
312 310 309 307 306 305 304 303 303 303 304 306 307 308 308 308 308 307 307 307 307 307 307 308 308 309 309 310 309 308 307 307 306 305 304 303 302 300 298 296 295 295 295 294 293 292 291 290 287 284 279 274 268 264 259 257 254 253 253 252 252 251 251 252 253 254 256 258 259
Height
1486 1485 1484 1483 1483 1482 1481 1480 1479 1478 1477 1476 1475 1474 1473 1473 1471 1470 1469 1469 1468 1467 1466 1465 1464 1464 1463 1463 1462 1462 1461 1461 1460 1459 1459 1458 1457 1457 1456 1455 1455 1454 1454 1453 1453 1453 1453 1453 1452 1452 1451 1450 1450 1449 1449 1448 1448 1448 1448 1448 1447 1447 1447 1447 1447 1447 1448 1448 1448
1485 1484 1483 1483 1482 1481 1479 1478 1478 1477 1476 1475 1474 1473 1472 1471 1470 1468 1468 1467 1466 1465 1464 1463 1462 1462 1461 1460 1460 1459 1458 1458 1457 1457 1456 1455 1454 1454 1453 1453 1452 1452 1451 1451 1451 1451 1450 1450 1450 1449 1448 1447 1447 1446 1445 1445 1445 1445 1445 1444 1444 1444 1444 1444 1443 1443 1444 1445 1446
1484 1483 1483 1482 1481 1479 1478 1477 1476 1475 1474 1473 1473 1471 1470 1469 1468 1467 1466 1465 1464 1463 1462 1461 1460 1459 1459 1458 1457 1456 1456 1455 1454 1454 1453 1452 1451 1451 1450 1450 1449 1449 1448 1448 1448 1448 1447 1447 1447 1446 1445 1444 1443 1443 1442 1442 1442 1442 1442 1441 1441 1441 1441 1440 1440 1441 1442 1442 1443
1483 1482 1481 1480 1479 1478 1477 1476 1475 1474 1473 1472 1471 1470 1469 1468 1466 1465 1464 1463 1462 1461 1460 1458 1458 1457 1456 1455 1454 1453 1453 1452 1451 1451 1450 1449 1448 1448 1448 1447 1446 1446 1445 1445 1445 1444 1444 1444 1444 1443 1442 1441 1440 1439 1439 1439 1439 1439 1438 1438 1438 1438 1438 1437 1437 1438 1439 1439 1439
1482 1481 1480 1479 1478 1477 1476 1474 1473 1472 1471 1471 1469 1468 1467 1466 1464 1463 1462 1461 1460 1459 1458 1457 1456 1455 1454 1453 1452 1451 1450 1449 1449 1448 1447 1446 1445 1445 1444 1444 1443 1443 1442 1442 1442 1441 1441 1442 1441 1440 1439 1438 1437 1436 1436 1436 1436 1436 1435 1435 1435 1435 1434 1434 1434 1435 1435 1436 1436
1480 1479 1478 1477 1476 1475 1474 1473 1472 1471 1470 1469 1468 1466 1465 1464 1463 1462 1460 1459 1458 1457 1456 1455 1454 1453 1451 1450 1449 1448 1448 1447 1446 1445 1444 1443 1443 1442 1442 1441 1440 1440 1439 1439 1438 1438 1438 1438 1438 1437 1435 1435 1434 1433 1433 1433 1433 1433 1432 1432 1431 1431 1431 1431 1432 1432 1433 1433 1433
1478 1477 1476 1475 1474 1473 1472 1471 1470 1469 1468 1467 1466 1464 1463 1462 1461 1460 1458 1457 1456 1455 1454 1453 1452 1450 1449 1448 1447 1446 1445 1444 1443 1442 1442 1441 1440 1439 1439 1438 1437 1437 1436 1436 1435 1435 1435 1435 1435 1433 1432 1432 1430 1429 1429 1430 1430 1429 1429 1428 1428 1428 1428 1428 1428 1429 1429 1429 1429
1476 1475 1474 1473 1472 1471 1470 1469 1468 1467 1466 1465 1464 1463 1461 1460 1459 1458 1457 1455 1454 1453 1452 1451 1449 1448 1447 1446 1444 1443 1442 1441 1440 1440 1439 1438 1437 1437 1436 1435 1434 1434 1433 1433 1432 1432 1432 1432 1431 1430 1429 1428 1427 1426 1426 1426 1426 1426 1425 1425 1425 1425 1425 1425 1425 1426 1426 1426 1426
1474 1473 1472 1471 1470 1469 1468 1467 1466 1465 1464 1463 1462 1460 1459 1458 1457 1456 1454 1453 1452 1451 1450 1448 1447 1446 1445 1443 1442 1441 1439 1438 1438 1437 1436 1435 1435 1434 1433 1432 1431 1430 1430 1429 1429 1428 1428 1428 1427 1426 1425 1425 1424 1423 1423 1423 1423 1423 1422 1422 1422 1422 1422 1422 1423 1423 1423 1423 1423
1472 1471 1470 1469 1468 1467 1466 1465 1464 1463 1462 1461 1459 1458 1457 1456 1455 1453 1452 1451 1450 1448 1447 1446 1444 1443 1442 1441 1439 1438 1437 1436 1435 1434 1433 1433 1432 1431 1430 1429 1428 1427 1427 1426 1426 1425 1425 1424 1423 1422 1422 1421 1421 1420 1420 1420 1420 1419 1419 1419 1419 1419 1419 1419 1419 1419 1420 1420 1420
1470 1469 1468 1467 1466 1465 1464 1463 1462 1461 1460 1458 1458 1456 1455 1454 1453 1451 1450 1448 1447 1446 1444 1443 1442 1441 1439 1438 1437 1435 1434 1433 1432 1431 1430 1429 1429 1428 1427 1426 1425 1424 1423 1423 1423 1422 1421 1420 1419 1418 1417 1417 1417 1417 1417 1417 1417 1416 1416 1416 1416 1416 1416 1415 1416 1416 1417 1417 1417
1468 1467 1466 1465 1464 1463 1462 1461 1460 1459 1458 1457 1456 1454 1453 1452 1451 1449 1448 1446 1445 1443 1442 1441 1440 1438 1437 1435 1434 1433 1431 1430 1429 1428 1427 1426 1425 1425 1424 1423 1422 1421 1420 1420 1419 1418 1417 1416 1415 1414 1413 1413 1413 1413 1413 1413 1413 1413 1413 1413 1413 1413 1412 1412 1412 1413 1413 1413 1414
1467 1466 1464 1463 1463 1461 1460 1459 1458 1457 1456 1455 1454 1453 1451 1450 1448 1447 1446 1444 1442 1441 1439 1438 1437 1435 1434 1432 1431 1430 1428 1427 1426 1425 1424 1423 1422 1421 1420 1419 1418 1418 1417 1416 1416 1415 1414 1413 1412 1411 1410 1409 1409 1409 1409 1410 1410 1410 1409 1409 1409 1409 1408 1408 1409 1410 1410 1410 1411
1465 1464 1463 1462 1461 1460 1459 1458 1457 1455 1454 1453 1452 1450 1449 1448 1447 1445 1443 1442 1440 1438 1437 1436 1434 1433 1431 1429 1428 1427 1425 1424 1423 1422 1420 1419 1418 1418 1417 1416 1415 1414 1413 1413 1413 1412 1410 1409 1408 1408 1407 1407 1406 1406 1406 1406 1406 1406 1406 1406 1406 1405 1405 1405 1406 1407 1407 1407 1407
1464 1463 1462 1460 1459 1458 1457 1456 1455 1453 1452 1451 1450 1448 1447 1446 1444 1443 1441 1440 1438 1436 1435 1433 1431 1430 1428 1427 1425 1423 1422 1421 1420 1418 1417 1416 1415 1414 1413 1412 1411 1411 1410 1409 1409 1408 1407 1406 1406 1405 1405 1404 1403 1403 1403 1403 1403 1403 1403 1403 1403 1403 1403 1403 1403 1404 1404 1404 1404
1463 1461 1460 1459 1458 1457 1455 1454 1453 1452 1450 1449 1448 1446 1445 1443 1442 1441 1439 1437 1436 1434 1432 1430 1428 1427 1425 1424 1422 1420 1419 1418 1416 1415 1414 1413 1412 1411 1410 1409 1408 1407 1407 1406 1405 1405 1404 1403 1403 1402 1402 1401 1401 1401 1400 1400 1400 1400 1400 1399 1400 1400 1400 1400 1401 1401 1401 1401 1401
1461 1460 1458 1457 1456 1455 1454 1452 1451 1450 1448 1447 1446 1444 1443 1441 1440 1438 1437 1435 1433 1431 1429 1428 1426 1424 1422 1420 1419 1417 1416 1414 1413 1412 1410 1409 1408 1407 1406 1405 1405 1404 1403 1403 1402 1401 1400 1400 1399 1399 1399 1398 1398 1398 1398 1398 1397 1397 1397 1397 1397 1397 1397 1398 1398 1398 1398 1398 1398
1459 1458 1457 1456 1454 1453 1452 1450 1449 1448 1446 1445 1443 1442 1441 1439 1437 1436 1434 1433 1431 1429 1427 1425 1423 1421 1419 1417 1416 1414 1412 1410 1409 1408 1407 1406 1405 1404 1403 1402 1401 1401 1400 1399 1398 1398 1397 1396 1396 1396 1396 1396 1395 1395 1395 1395 1394 1394 1394 1394 1394 1394 1394 1395 1395 1395 1395 1395 1395
1457 1456 1455 1453 1452 1451 1449 1448 1447 1445 1444 1443 1441 1439 1438 1437 1435 1433 1431 1430 1428 1426 1424 1421 1419 1418 1416 1414 1412 1410 1409 1407 1405 1404 1403 1402 1401 1400 1399 1398 1398 1397 1397 1396 1395 1394 1393 1393 1393 1393 1393 1393 1392 1392 1392 1392 1392 1392 1392 1391 1391 1391 1391 1392 1392 1392 1392 1392 1393
1455 1454 1453 1451 1450 1448 1447 1446 1444 1443 1441 1440 1438 1437 1435 1434 1432 1431 1428 1427 1425 1423 1421 1418 1416 1414 1413 1411 1409 1407 1405 1404 1402 1401 1399 1399 1398 1397 1396 1395 1395 1394 1393 1392 1391 1390 1389 1389 1389 1389 1389 1389 1389 1389 1389 1389 1389 1388 1388 1388 1388 1388 1388 1388 1389 1389 1389 1389 1390
1453 1452 1450 1449 1448 1446 1444 1443 1442 1440 1439 1437 1436 1434 1433 1431 1429 1428 1426 1424 1422 1420 1418 1415 1413 1411 1409 1407 1405 1403 1402 1400 1399 1397 1396 1395 1394 1393 1393 1392 1391 1390 1390 1389 1388 1387 1386 1386 1386 1386 1386 1386 1386 1385 1385 1386 1385 1385 1385 1385 1385 1385 1385 1385 1386 1386 1386 1386 1387
1451 1449 1448 1446 1445 1443 1442 1441 1439 1438 1436 1435 1433 1432 1430 1428 1426 1425 1423 1421 1419 1417 1414 1412 1410 1408 1406 1404 1402 1400 1398 1397 1395 1394 1393 1392 1391 1390 1389 1389 1388 1387 1386 1385 1384 1384 1383 1383 1383 1382 1382 1382 1382 1382 1382 1382 1382 1382 1382 1382 1382 1382 1382 1382 1382 1383 1383 1383 1383
1448 1447 1445 1444 1443 1441 1439 1438 1437 1435 1433 1432 1430 1428 1427 1425 1423 1421 1419 1418 1416 1413 1411 1409 1407 1404 1402 1400 1398 1397 1395 1393 1392 1390 1389 1388 1388 1387 1386 1386 1385 1383 1383 1382 1381 1381 1380 1380 1379 1379 1379 1378 1378 1378 1378 1378 1378 1378 1378 1378 1378 1378 1378 1379 1379 1379 1379 1380 1380
1446 1444 1443 1441 1440 1438 1437 1435 1434 1432 1431 1429 1428 1426 1424 1422 1420 1418 1416 1414 1412 1410 1408 1405 1403 1401 1399 1397 1395 1393 1392 1390 1388 1387 1386 1385 1384 1383 1383 1382 1381 1380 1379 1378 1378 1378 1377 1377 1376 1376 1375 1375 1375 1374 1374 1374 1374 1374 1374 1374 1375 1375 1375 1375 1375 1376 1376 1376 1377
1443 1442 1440 1439 1438 1436 1434 1433 1431 1430 1428 1426 1424 1423 1421 1418 1417 1415 1413 1410 1408 1406 1404 1402 1400 1398 1396 1394 1392 1390 1389 1387 1386 1384 1383 1382 1381 1380 1379 1378 1377 1377 1376 1375 1375 1375 1374 1373 1373 1372 1372 1371 1371 1371 1371 1371 1370 1370 1371 1371 1371 1371 1371 1371 1372 1372 1372 1372 1373
1441 1439 1438 1436 1435 1433 1432 1430 1428 1427 1425 1423 1421 1419 1417 1415 1413 1411 1409 1407 1404 1403 1400 1398 1396 1394 1393 1391 1389 1387 1386 1384 1383 1381 1380 1379 1378 1377 1376 1375 1374 1373 1372 1372 1372 1372 1371 1371 1370 1369 1368 1368 1367 1367 1367 1366 1366 1366 1367 1367 1367 1368 1368 1368 1367 1368 1368 1368 1369
1438 1437 1435 1433 1432 1431 1429 1428 1426 1424 1422 1420 1418 1416 1414 1412 1410 1408 1405 1403 1401 1399 1397 1395 1393 1391 1389 1388 1386 1384 1383 1381 1380 1378 1377 1376 1375 1374 1373 1372 1371 1370 1369 1369 1369 1368 1368 1368 1367 1366 1365 1364 1363 1363 1362 1362 1362 1363 1363 1363 1363 1363 1363 1363 1363 1364 1364 1365 1365
1435 1434 1433 1431 1429 1428 1426 1425 1423 1421 1418 1417 1414 1412 1410 1408 1406 1404 1402 1399 1397 1395 1393 1391 1390 1388 1386 1384 1383 1381 1379 1378 1377 1375 1374 1373 1371 1370 1369 1368 1368 1366 1366 1366 1365 1365 1365 1364 1364 1364 1363 1362 1360 1358 1358 1358 1358 1359 1359 1359 1359 1359 1359 1359 1360 1360 1361 1361 1362
1433 1432 1430 1428 1427 1425 1423 1422 1419 1418 1415 1413 1411 1409 1407 1405 1403 1401 1398 1396 1394 1392 1390 1388 1386 1385 1383 1381 1379 1378 1376 1375 1374 1373 1371 1370 1368 1367 1366 1365 1364 1363 1363 1363 1362 1362 1361 1361 1361 1361 1361 1360 1359 1357 1355 1354 1354 1355 1355 1355 1355 1355 1356 1356 1356 1357 1357 1358 1358
1430 1429 1427 1425 1423 1422 1420 1418 1416 1414 1412 1410 1408 1406 1404 1402 1399 1398 1395 1393 1391 1389 1387 1385 1383 1381 1380 1378 1377 1375 1373 1372 1371 1369 1368 1367 1365 1364 1363 1362 1361 1360 1360 1359 1359 1358 1358 1358 1357 1357 1357 1358 1357 1356 1353 1352 1351 1351 1351 1351 1351 1351 1352 1352 1353 1353 1353 1354 1355
1428 1426 1424 1423 1420 1418 1417 1415 1413 1411 1408 1407 1404 1402 1400 1398 1396 1394 1392 1390 1388 1386 1384 1382 1380 1378 1377 1375 1374 1372 1370 1369 1368 1367 1365 1363 1362 1361 1359 1359 1358 1357 1356 1356 1356 1355 1355 1354 1354 1354 1354 1354 1354 1354 1352 1350 1349 1348 1348 1347 1347 1348 1348 1349 1349 1349 1350 1351 1352
1425 1423 1422 1419 1417 1415 1413 1411 1409 1407 1405 1403 1401 1399 1397 1395 1393 1391 1389 1387 1385 1383 1381 1379 1377 1375 1374 1372 1371 1369 1368 1366 1365 1363 1362 1361 1359 1358 1356 1356 1354 1354 1353 1353 1353 1352 1352 1351 1351 1351 1351 1351 1351 1351 1350 1349 1348 1346 1345 1344 1344 1344 1345 1345 1346 1346 1347 1348 1348
1422 1420 1418 1416 1414 1412 1410 1408 1406 1403 1402 1400 1398 1396 1394 1392 1390 1388 1386 1384 1383 1380 1378 1376 1375 1373 1371 1369 1368 1366 1365 1363 1362 1360 1359 1358 1356 1355 1353 1352 1351 1351 1350 1350 1349 1349 1348 1348 1348 1348 1348 1348 1348 1348 1347 1347 1346 1344 1343 1342 1341 1341 1342 1342 1342 1343 1343 1344 1345
1419 1417 1415 1413 1410 1408 1406 1404 1402 1400 1398 1396 1394 1393 1391 1389 1387 1385 1383 1381 1380 1378 1376 1374 1372 1370 1368 1367 1365 1364 1362 1360 1359 1358 1356 1355 1353 1352 1350 1349 1348 1348 1348 1347 1346 1346 1345 1345 1345 1345 1345 1345 1345 1344 1344 1344 1344 1343 1341 1340 1339 1338 1338 1338 1339 1339 1340 1341 1342
1416 1414 1411 1409 1407 1405 1403 1400 1399 1397 1395 1393 1391 1389 1388 1386 1384 1383 1380 1378 1377 1375 1373 1371 1370 1368 1366 1364 1363 1361 1359 1358 1356 1355 1353 1352 1351 1349 1347 1346 1345 1345 1345 1344 1343 1343 1342 1342 1342 1342 1342 1342 1342 1341 1341 1341 1341 1340 1339 1338 1337 1336 1336 1336 1336 1336 1337 1338 1339
1413 1410 1408 1405 1403 1401 1399 1398 1396 1394 1392 1390 1388 1387 1385 1383 1381 1379 1378 1376 1373 1372 1370 1368 1367 1365 1363 1361 1359 1358 1356 1355 1353 1352 1350 1349 1348 1346 1344 1343 1342 1342 1342 1342 1341 1340 1339 1339 1339 1339 1339 1339 1338 1338 1338 1338 1338 1337 1337 1336 1335 1334 1334 1333 1333 1334 1334 1335 1335
1409 1407 1405 1402 1400 1398 1396 1395 1393 1391 1389 1388 1386 1384 1382 1380 1378 1376 1374 1373 1371 1368 1367 1365 1363 1362 1360 1358 1357 1355 1353 1352 1350 1348 1347 1346 1345 1343 1341 1339 1339 1338 1339 1339 1338 1337 1337 1336 1336 1336 1336 1336 1335 1335 1334 1334 1334 1334 1334 1334 1333 1332 1332 1332 1332 1331 1331 1331 1332
1406 1404 1402 1400 1398 1396 1394 1392 1391 1389 1387 1385 1383 1381 1379 1377 1375 1373 1372 1370 1368 1366 1364 1362 1361 1359 1358 1356 1354 1352 1350 1349 1348 1346 1344 1343 1342 1340 1338 1337 1335 1335 1335 1336 1335 1335 1334 1333 1333 1333 1333 1333 1332 1332 1332 1331 1331 1331 1331 1331 1331 1330 1330 1330 1330 1329 1328 1328 1328
1403 1401 1399 1398 1395 1393 1392 1390 1388 1386 1384 1382 1380 1378 1376 1374 1372 1370 1369 1368 1366 1364 1362 1360 1358 1356 1355 1353 1351 1349 1347 1346 1345 1343 1341 1340 1338 1337 1336 1334 1332 1332 1332 1332 1332 1332 1331 1331 1331 1331 1331 1330 1330 1329 1329 1328 1328 1328 1328 1328 1328 1328 1328 1328 1328 1327 1326 1325 1325
1400 1399 1397 1395 1393 1391 1389 1388 1385 1383 1382 1379 1377 1375 1373 1371 1369 1368 1366 1365 1363 1362 1359 1357 1355 1353 1352 1351 1348 1346 1344 1342 1341 1340 1338 1337 1335 1334 1333 1331 1329 1329 1328 1329 1329 1328 1328 1328 1328 1328 1328 1327 1327 1327 1326 1326 1325 1325 1325 1325 1325 1325 1325 1325 1325 1324 1323 1323 1323
1398 1396 1395 1393 1391 1389 1387 1385 1383 1380 1379 1377 1374 1372 1370 1369 1367 1365 1364 1362 1361 1359 1357 1355 1353 1351 1349 1348 1346 1343 1341 1339 1338 1337 1336 1334 1333 1331 1330 1328 1327 1326 1325 1325 1325 1325 1325 1325 1324 1325 1325 1324 1324 1324 1323 1323 1323 1322 1322 1322 1322 1323 1323 1323 1323 1322 1321 1320 1320